GFSSW_925_rhum_090.txt.gz
RH
94 91 92 90 92 93 93 93 88 92 93 94 94 95 94 39 27 41 28 21 21 16 18 44 31 25 21 19 20 16 18 16 13 14 11 9 11 8 9 9 10 11 12 14 24
94 92 91 92 93 93 94 89 88 88 88 91 92 94 92 24 55 28 29 43 44 30 25 28 24 26 20 18 20 20 21 18 13 13 11 9 9 9 12 10 11 11 10 11 17
97 96 93 92 92 93 93 80 72 84 84 83 93 96 85 50 33 7 27 36 22 21 38 22 20 24 23 21 23 21 20 16 16 15 13 12 11 10 11 12 10 11 10 10 17
92 95 96 94 92 92 92 63 56 72 60 56 79 97 80 53 6 26 26 20 41 53 34 25 21 28 24 25 20 28 20 19 16 15 14 15 12 13 12 13 11 10 10 11 13
89 89 94 93 91 93 89 69 43 42 47 62 98 98 64 22 10 15 10 19 34 44 31 23 20 19 21 16 17 26 18 16 17 17 16 15 16 16 15 13 13 13 14 15 15
65 81 92 94 92 87 83 52 35 42 41 56 93 97 60 25 12 23 26 24 18 32 31 28 23 17 18 18 18 15 19 17 18 18 19 20 19 18 17 14 15 15 14 14 14
82 84 79 67 54 51 46 32 37 48 50 61 79 83 61 25 27 26 25 25 22 19 26 28 30 30 21 26 21 24 28 22 20 20 21 19 23 20 14 13 14 14 14 14 13
91 83 63 59 48 46 35 28 46 53 70 62 74 75 44 39 36 43 41 39 35 24 22 21 29 28 25 16 20 23 21 25 14 18 19 21 19 11 12 14 15 14 14 14 14
88 87 77 73 53 45 30 38 61 76 62 84 74 66 35 34 39 40 41 38 35 36 29 18 23 26 20 24 21 19 21 16 17 22 21 24 17 14 16 17 17 16 15 14 14
91 86 85 76 51 43 32 45 58 76 51 66 65 56 35 24 20 36 24 40 33 34 33 22 23 28 28 22 22 16 16 19 20 15 22 20 19 15 14 13 13 12 13 14 15
85 80 77 64 48 53 45 38 26 31 32 32 24 31 26 19 22 20 19 26 27 30 30 22 28 30 22 25 21 17 21 19 18 19 21 18 14 12 13 14 15 14 12 12 13
79 68 66 52 47 52 45 45 58 63 70 38 36 37 37 37 46 29 24 30 26 34 29 33 31 18 22 23 27 25 22 18 15 18 24 22 23 20 17 16 15 14 13 13 12
75 72 62 48 46 58 54 63 71 72 76 35 33 36 34 42 42 32 28 21 28 29 36 33 25 21 25 35 40 31 29 27 25 24 27 30 25 14 18 16 15 15 15 15 15
66 68 62 46 52 61 42 58 67 83 51 19 26 35 24 35 42 19 29 28 20 23 29 40 29 37 36 35 30 32 23 28 30 38 36 32 22 13 14 15 17 21 23 22 20
73 81 63 62 62 45 52 65 67 83 25 17 21 32 19 20 19 19 27 32 36 21 29 37 40 36 39 33 28 30 37 38 40 42 36 30 36 15 16 20 23 28 34 32 27
70 67 53 63 63 57 66 70 72 51 18 17 17 27 22 12 22 23 29 28 26 27 26 27 36 37 32 30 36 35 47 44 38 37 46 29 29 14 20 30 36 36 36 36 35
63 55 63 72 50 73 74 51 43 27 12 19 34 29 20 16 29 42 42 39 42 44 40 30 36 41 41 52 43 41 41 51 57 58 37 31 34 21 26 43 44 42 38 38 39
55 54 62 73 79 67 64 41 32 12 20 32 35 26 22 37 35 48 50 44 34 33 27 44 49 44 44 38 45 43 39 37 39 37 30 35 43 30 41 41 37 36 36 36 37
54 66 65 83 92 79 48 49 21 35 46 48 35 28 28 43 35 32 37 50 38 31 31 30 33 34 42 34 36 52 63 40 56 44 53 27 27 38 36 38 36 37 38 41 44
66 55 67 76 80 64 57 47 33 31 33 37 41 31 52 38 40 36 39 85 82 53 37 40 42 47 51 42 48 47 38 68 59 71 57 30 30 31 51 42 37 40 45 47 51
67 49 78 88 86 52 64 42 43 36 39 44 40 42 40 44 33 37 45 48 100 81 60 63 45 64 56 55 53 62 59 63 61 63 70 45 37 50 44 37 36 42 46 52 68
62 65 78 84 61 62 52 46 49 39 38 44 45 42 46 47 60 56 64 51 69 92 88 49 47 61 56 54 40 44 47 54 61 81 62 72 45 38 35 25 24 35 49 57 72
62 50 68 80 61 53 47 46 46 48 44 45 45 38 36 42 60 51 52 52 63 99 98 51 46 62 67 55 53 51 69 62 62 60 65 67 41 39 25 21 27 36 54 61 75
75 75 50 58 78 76 67 51 49 38 48 48 52 47 50 48 40 56 52 66 88 100 97 82 48 36 38 48 50 67 52 45 52 62 44 44 34 25 26 35 38 46 57 64 75
77 73 67 68 56 67 71 71 64 60 50 46 58 58 64 68 46 52 68 97 100 94 69 52 54 46 40 39 36 37 38 39 45 41 44 29 30 33 36 44 42 58 62 66 77
89 56 72 66 64 90 69 65 68 64 82 63 80 58 59 78 51 69 82 84 100 81 86 50 61 51 42 40 39 40 33 31 31 33 39 37 42 28 38 42 74 76 72 74 79
75 72 65 56 50 61 56 62 67 91 59 66 97 93 71 54 49 53 56 68 75 92 86 62 55 45 51 35 37 38 37 36 35 35 42 52 49 48 64 88 90 83 84 82 86

GFSSW_925_rhum_096.txt.gz
RH
86 92 91 93 95 95 95 95 92 79 66 77 68 39 31 42 52 48 30 24 20 22 22 12 11 23 19 18 18 17 24 25 20 18 14 10 9 7 5 6 5 6 6 10 19
82 96 96 95 95 96 95 96 94 83 66 75 57 42 35 53 77 45 28 19 14 18 24 12 9 16 19 19 17 19 27 24 16 13 12 10 8 8 7 7 7 7 8 6 12
90 97 97 96 95 93 94 96 90 82 66 54 44 42 60 73 46 20 20 18 20 19 29 19 9 10 15 13 15 17 24 20 16 13 11 11 10 8 9 9 8 10 11 10 11
88 85 79 87 90 90 86 78 53 34 30 30 33 40 68 78 20 21 15 14 17 31 27 21 18 13 14 14 13 16 15 15 15 14 13 14 12 12 11 13 11 9 9 10 11
71 59 63 83 85 84 51 35 32 28 23 27 34 42 75 41 23 19 9 7 17 37 30 21 19 17 14 12 11 15 13 11 12 13 14 14 14 15 14 11 9 9 10 11 11
61 61 60 64 70 41 34 25 24 25 28 34 39 71 68 39 10 11 13 12 10 10 18 17 16 14 16 14 14 12 12 10 10 12 11 15 14 13 14 12 12 12 11 11 12
63 72 63 63 46 34 27 23 24 27 31 41 55 89 45 29 13 14 14 15 12 9 8 10 13 16 15 19 15 14 15 12 12 11 11 12 17 16 13 13 14 14 12 12 11
70 70 62 50 41 28 21 28 34 34 48 51 60 67 47 20 18 17 15 17 19 17 11 9 10 12 17 17 18 20 19 23 16 14 14 15 24 15 14 14 14 14 13 12 12
70 66 59 52 32 23 21 30 35 42 51 50 82 63 36 23 14 20 20 18 19 19 20 16 9 14 17 26 28 24 28 24 18 11 10 10 13 10 10 12 12 10 12 12 12
70 60 62 46 29 30 40 33 32 41 65 56 48 39 31 17 12 13 13 11 15 14 19 23 16 17 17 21 31 26 21 18 17 12 11 14 13 11 11 11 12 14 14 13 12
61 60 55 37 25 37 42 32 23 38 40 17 15 29 15 10 12 15 16 15 12 12 22 23 26 23 17 16 16 16 16 17 14 9 11 14 15 11 12 12 11 10 12 11 11
58 58 38 26 27 42 41 27 32 39 43 22 16 15 12 13 20 15 17 17 13 15 12 22 30 22 15 11 14 16 19 19 14 12 13 12 12 9 9 9 10 9 9 9 10
61 46 28 28 41 49 34 30 32 41 44 22 16 16 16 18 23 19 14 18 21 22 17 18 18 16 18 18 15 18 20 18 20 14 13 14 14 13 12 12 11 10 10 10 11
60 41 33 36 61 33 33 32 36 51 54 25 18 18 21 21 20 14 14 16 15 20 23 23 15 12 14 19 16 21 15 17 21 23 25 14 25 16 13 12 12 12 12 14 19
55 41 41 53 68 29 31 36 38 52 58 16 18 22 16 19 14 10 7 7 11 17 21 25 20 20 16 17 16 21 16 20 23 24 24 24 26 19 15 13 12 20 23 24 25
57 40 47 54 53 41 41 48 48 81 55 13 10 16 18 16 15 10 8 6 8 15 20 21 15 17 19 12 17 24 19 23 25 27 41 28 28 24 19 14 19 27 26 29 31
49 44 59 56 46 49 53 45 56 50 9 13 17 17 19 19 15 12 11 10 12 36 39 37 27 23 17 13 29 28 37 66 70 56 56 26 24 23 18 28 29 27 29 34 37
42 56 54 51 61 60 53 48 46 16 14 17 19 20 21 16 20 27 25 24 19 42 68 70 49 25 23 27 51 45 39 60 65 56 44 25 30 28 18 24 25 31 31 36 43
50 64 58 62 66 59 56 59 32 24 20 24 23 24 20 18 19 27 26 22 19 56 88 69 49 26 23 37 50 48 53 45 61 46 69 75 22 32 32 35 28 29 35 44 47
74 50 46 61 60 63 58 54 25 20 21 23 32 25 31 24 24 24 24 19 22 59 53 65 90 40 31 34 51 48 37 50 50 93 83 81 55 77 60 37 25 25 39 47 51
73 46 61 57 64 60 70 32 25 19 20 25 29 31 30 34 40 40 39 29 69 49 49 47 76 58 62 60 51 31 54 45 51 50 77 52 60 65 63 34 28 34 39 53 58
51 66 49 53 63 38 44 30 27 24 21 22 22 27 34 36 40 42 37 28 37 44 59 55 100 82 80 44 44 21 40 56 61 54 39 67 93 76 45 27 37 39 42 52 56
51 40 38 57 75 43 29 26 23 25 24 26 31 29 27 33 51 35 33 25 54 60 68 91 76 94 80 64 35 26 24 38 61 50 82 73 93 75 54 40 49 53 50 53 57
63 76 40 40 39 48 45 33 32 25 30 33 37 31 49 58 48 56 45 35 54 75 67 95 88 84 90 67 39 39 32 50 60 66 63 59 78 56 43 46 59 58 53 54 59
67 70 43 60 46 46 49 53 49 48 40 36 42 38 45 56 46 40 55 68 63 67 95 100 94 98 96 89 58 70 68 84 75 53 48 36 49 48 48 62 64 61 61 64 68
88 54 30 44 50 60 58 51 47 50 57 54 63 51 53 71 57 55 54 63 90 76 99 98 94 91 93 70 50 78 84 70 35 36 32 33 41 45 48 70 77 79 76 82 83
41 38 43 40 40 46 54 42 46 60 54 45 59 64 63 74 65 67 64 58 62 73 100 99 100 52 42 22 27 42 29 27 54 57 55 70 61 53 70 90 94 88 84 85 84

GFSSW_925_rhum_099.txt.gz
RH
85 90 95 96 97 95 97 97 97 76 62 63 31 14 28 49 38 46 54 22 28 27 28 20 12 10 22 24 22 26 39 43 37 30 24 16 16 12 9 7 6 6 7 29 27
82 94 96 96 97 97 96 96 80 55 55 51 57 25 25 52 60 71 16 26 24 17 20 20 13 10 33 27 25 27 38 38 27 24 22 17 16 15 14 12 9 8 9 25 26
88 95 97 95 86 90 93 86 50 45 52 66 59 56 30 63 71 33 22 28 23 18 21 25 22 11 19 27 27 26 29 24 22 22 21 21 18 15 17 17 11 12 13 12 18
74 82 75 78 85 86 89 56 34 21 32 63 58 56 38 80 26 23 14 20 16 16 32 25 24 26 16 20 19 24 22 21 19 17 19 19 17 18 18 19 17 14 12 12 15
71 64 64 83 84 80 60 37 38 24 22 18 40 60 65 64 58 23 17 9 10 21 36 32 31 29 28 17 16 16 16 15 15 15 15 16 16 17 18 16 14 14 14 16 16
61 58 69 70 54 38 29 28 21 26 32 31 38 65 91 54 13 11 11 13 13 15 27 30 26 21 23 22 22 16 15 14 13 14 13 15 17 17 16 14 13 13 14 16 16
62 67 71 72 44 33 26 20 21 34 39 36 59 91 71 50 14 19 16 14 14 13 14 10 10 15 21 24 21 19 25 21 17 16 16 14 16 17 15 15 14 13 14 14 13
69 73 68 51 38 26 19 19 24 34 37 45 67 86 81 28 24 21 14 14 15 14 15 14 11 14 16 20 21 26 28 34 22 18 16 17 22 14 16 16 15 15 15 14 14
82 72 60 45 34 18 26 35 32 37 37 48 78 86 72 25 23 13 14 14 12 18 19 18 17 17 16 24 33 34 41 36 29 20 19 18 21 16 16 15 16 16 16 15 14
82 73 60 39 24 18 37 36 30 51 46 72 66 75 59 28 11 12 13 14 15 14 14 19 30 34 22 27 39 40 43 36 33 24 20 20 18 13 15 14 14 16 16 16 17
73 60 46 33 18 28 41 44 37 57 51 49 44 40 28 17 9 11 13 16 19 17 21 19 35 47 30 24 22 24 28 25 20 16 20 18 17 13 13 12 12 15 14 13 17
68 51 30 21 19 39 41 40 34 40 56 31 27 23 18 14 16 14 14 21 21 27 18 22 25 22 28 24 22 22 24 23 18 16 18 18 19 17 14 13 11 13 12 11 11
64 42 29 24 30 40 40 31 35 46 63 34 22 20 18 15 17 21 18 21 26 28 28 33 22 17 19 25 29 27 25 20 21 20 20 23 23 19 14 12 10 10 8 9 10
53 32 36 31 63 44 36 34 38 52 87 34 20 17 22 22 25 14 15 18 22 25 22 28 22 24 25 25 18 20 20 20 18 21 36 22 37 22 15 13 12 11 11 12 14
43 36 39 57 56 47 42 38 38 54 88 24 22 19 18 20 19 14 11 12 16 15 13 16 16 22 27 24 21 25 16 28 22 23 32 31 36 25 20 19 16 16 13 12 18
47 41 45 56 61 51 43 43 54 88 83 14 21 22 19 19 18 14 14 12 12 14 11 12 15 27 33 30 22 18 23 38 49 39 51 36 36 32 25 20 18 36 46 49 53
50 42 50 56 62 56 47 58 86 93 12 21 22 20 21 21 19 17 26 29 30 35 42 38 36 30 28 34 32 35 32 77 85 74 69 33 38 34 23 18 44 60 58 60 62
42 49 55 60 47 58 59 73 77 28 25 21 23 23 25 20 20 21 25 33 24 46 71 72 73 42 35 43 58 40 39 87 79 78 60 35 44 31 19 23 78 58 60 67 72
47 59 68 63 50 64 78 94 49 27 23 26 24 27 26 26 26 27 32 29 28 59 76 77 53 38 37 43 44 66 73 52 92 66 89 68 51 47 61 63 73 65 70 74 72
73 68 56 42 56 68 91 69 31 22 21 22 32 28 39 33 35 43 46 34 44 51 57 70 83 38 30 52 56 54 52 84 94 94 88 80 84 98 95 92 86 73 74 74 73
69 75 61 53 62 81 94 59 27 19 20 25 30 33 35 39 39 46 41 39 48 50 50 56 71 60 54 63 70 84 81 78 76 66 96 95 99 98 96 85 81 71 70 72 74
76 92 51 56 88 81 86 32 25 23 24 27 25 34 41 42 45 46 50 38 31 51 61 82 96 94 63 41 61 60 72 70 90 69 60 85 98 83 88 81 66 62 62 65 68
86 69 44 58 97 89 34 27 23 26 28 32 42 44 41 53 66 57 60 45 66 66 65 88 89 95 68 62 57 64 53 53 66 81 77 91 99 89 76 67 64 68 68 69 70
94 89 65 69 67 57 60 49 40 35 38 40 43 40 49 61 54 71 65 52 60 72 57 93 95 84 79 58 61 86 69 52 65 82 95 98 98 80 77 77 76 74 74 73 72
95 87 57 89 75 60 55 59 57 52 46 46 48 57 61 74 71 67 62 72 63 60 72 100 96 88 81 67 72 76 79 84 93 100 99 96 88 88 86 80 80 74 72 73 75
92 77 40 84 66 65 65 62 54 53 63 62 72 61 65 78 69 96 84 78 91 90 100 100 97 99 98 89 88 99 86 92 95 88 90 79 82 75 72 74 78 79 75 78 79
53 41 67 58 54 81 83 61 55 72 61 48 68 79 69 66 83 78 73 74 77 85 88 100 100 95 97 84 81 96 85 75 81 77 71 92 84 74 83 84 90 86 82 84 83

GFSSW_925_rhum_102.txt.gz
RH
67 59 68 87 88 93 95 86 57 41 56 65 64 56 45 34 18 39 57 6 21 27 28 27 16 14 16 28 29 31 52 52 47 40 33 24 23 18 13 14 14 11 10 16 36
67 72 78 97 89 73 71 75 30 15 25 56 45 46 24 42 66 78 20 14 22 25 21 23 19 12 23 31 28 32 50 50 37 32 31 26 26 23 18 19 16 16 17 34 39
72 69 74 78 64 54 62 41 27 24 42 48 60 45 21 72 86 42 24 20 26 26 22 26 26 25 15 30 33 31 37 33 30 26 25 26 27 22 22 21 17 19 19 15 25
72 63 69 65 59 66 54 41 27 32 40 43 52 60 33 83 9 24 15 21 23 18 25 29 27 30 20 18 22 38 30 27 24 22 23 22 19 21 22 22 17 18 16 15 14
73 63 62 59 63 53 38 41 26 27 26 37 49 58 62 73 60 12 18 15 9 10 29 35 35 34 38 28 19 20 18 18 19 20 21 19 21 21 19 17 17 16 15 18 21
69 61 57 60 48 41 26 32 27 23 28 38 48 63 91 56 9 17 18 13 14 18 29 35 39 28 30 28 29 22 21 21 18 16 15 17 17 18 16 17 17 14 15 17 18
67 57 66 57 45 38 25 28 20 21 32 42 62 90 90 53 17 18 23 15 14 14 15 14 13 14 16 19 20 21 26 25 24 24 20 16 20 18 14 15 16 16 16 15 17
66 64 70 57 42 34 30 20 24 35 36 44 66 97 84 13 25 33 23 16 16 15 15 15 16 16 15 16 18 24 29 39 25 24 22 19 28 18 15 17 18 17 14 13 14
73 72 73 49 33 22 12 25 36 38 38 47 74 90 82 42 33 20 23 15 14 13 14 13 18 21 18 20 27 33 31 32 30 24 26 25 28 20 16 18 17 16 16 15 14
85 81 66 42 28 18 24 37 35 43 48 69 72 81 64 32 12 11 12 11 15 16 16 14 26 38 30 30 34 33 46 41 40 24 27 30 28 22 18 17 15 15 14 15 17
93 82 57 37 20 19 39 44 38 45 59 70 66 63 31 26 16 12 11 17 19 18 24 20 24 34 44 30 28 26 24 25 21 18 22 21 19 19 18 16 16 14 17 19 19
88 68 49 29 15 33 46 41 37 40 57 37 37 42 38 31 26 18 14 20 24 29 24 24 29 23 27 36 32 30 30 30 24 20 21 20 20 17 18 16 15 16 16 17 17
77 55 36 24 24 43 38 38 40 41 62 37 29 26 24 22 23 19 18 22 26 32 32 39 30 23 26 27 29 31 36 35 33 25 22 22 24 20 18 17 15 14 13 12 12
63 45 33 30 54 55 47 38 38 55 72 36 29 22 23 22 25 16 12 18 16 20 23 29 24 24 22 23 25 33 25 27 26 26 39 30 40 22 22 21 17 15 14 12 11
54 40 39 54 60 52 47 35 38 55 32 31 30 19 22 21 19 17 12 14 18 19 17 20 18 17 19 16 15 21 30 30 27 32 64 38 48 29 24 23 20 17 43 43 52
44 42 45 64 66 58 49 42 54 78 40 21 22 21 22 20 18 16 17 19 18 20 19 20 14 15 20 29 34 32 37 34 36 68 77 54 57 39 30 26 22 67 75 78 78
46 40 48 58 64 53 49 58 74 73 23 25 27 22 25 23 22 22 25 28 35 41 40 38 40 32 31 43 40 41 47 67 87 86 71 40 46 36 40 32 26 72 85 82 85
46 45 57 62 47 57 60 68 70 34 28 23 24 24 26 28 26 27 35 46 28 43 71 79 62 41 38 39 46 44 70 70 81 81 65 41 53 55 80 74 77 79 90 80 81
42 54 64 63 54 62 75 92 49 28 24 26 24 30 33 29 32 36 45 46 42 58 75 79 66 43 40 37 61 64 75 55 72 59 70 73 50 61 70 81 81 85 83 86 77
67 73 67 52 55 69 85 72 30 22 21 23 33 31 42 35 39 45 47 38 44 46 62 68 80 45 37 40 46 69 49 82 89 84 80 73 75 100 98 94 93 93 91 82 76
68 84 61 55 65 82 90 68 28 20 21 26 31 37 36 44 39 47 44 37 44 47 56 55 75 57 53 58 66 82 92 75 74 88 75 88 98 100 100 98 98 92 81 78 76
80 92 57 55 87 87 82 35 24 25 23 30 32 37 48 54 60 59 55 47 50 56 63 86 93 89 66 46 40 63 84 74 88 63 77 94 98 100 100 100 91 79 75 72 71
87 71 49 61 91 90 43 30 26 39 42 48 49 49 44 56 78 75 65 54 58 60 66 76 82 92 67 67 69 88 92 83 83 100 89 98 99 96 95 83 73 76 72 70 69
94 88 72 75 72 62 62 52 47 42 44 48 50 49 68 74 62 76 68 56 56 68 54 85 92 85 83 58 55 72 87 86 78 94 94 96 97 91 82 84 78 72 69 69 71
94 86 67 91 76 64 65 57 59 55 53 50 57 65 70 78 75 74 73 83 73 67 75 100 99 92 88 73 65 66 94 96 98 98 95 97 95 92 88 83 79 71 70 74 77
89 64 65 87 57 57 65 61 56 54 62 67 73 70 74 86 75 83 85 82 84 83 100 78 98 98 96 82 81 91 100 86 81 92 96 91 89 79 73 68 76 80 76 80 81
66 54 71 73 69 82 86 68 61 72 60 58 64 88 88 72 66 75 79 76 71 82 83 91 99 98 97 94 93 90 97 88 84 82 76 88 92 70 79 81 89 87 84 86 86

GFSSW_925_rhum_105.txt.gz
RH
64 59 56 74 74 82 77 74 74 60 83 57 31 18 13 18 14 31 61 8 17 19 22 28 18 16 20 29 32 36 56 66 42 39 35 26 28 23 17 17 18 15 15 21 47
71 58 58 66 71 66 53 55 61 59 60 45 23 15 12 26 57 70 19 24 28 26 22 21 21 13 20 32 32 38 65 50 40 34 38 33 31 29 24 25 21 20 17 13 22
74 64 59 56 66 55 42 31 34 31 33 22 29 30 21 40 66 24 24 14 24 26 24 26 27 27 16 29 35 34 46 39 35 33 32 30 30 26 28 29 23 22 19 16 15
77 57 57 49 54 44 37 36 31 44 24 24 36 35 32 64 5 26 22 23 24 21 21 30 28 32 28 20 18 35 31 33 30 26 27 26 23 23 24 24 21 19 19 15 15
73 57 56 50 49 44 36 25 15 35 30 26 41 47 52 64 52 7 22 22 14 13 24 30 33 34 39 35 31 26 23 19 18 18 20 20 23 23 21 19 20 21 21 22 19
72 68 59 57 58 50 40 18 12 17 24 32 46 68 86 52 8 22 27 17 15 21 30 36 38 33 23 21 24 28 27 26 25 23 19 19 19 20 18 18 18 21 21 20 23
78 72 63 65 60 44 42 22 12 18 26 39 50 92 92 46 14 28 24 22 16 17 16 13 15 14 15 19 17 19 25 20 20 25 26 20 25 24 18 15 16 17 19 18 18
79 68 64 63 59 46 36 23 11 21 36 42 60 96 85 14 35 32 21 23 17 17 15 15 17 17 17 16 19 20 21 30 26 24 23 22 34 23 20 20 19 18 16 16 18
75 74 78 68 57 39 31 13 27 38 38 49 80 92 82 35 49 22 30 22 15 15 15 13 18 24 20 28 40 29 29 32 26 23 26 27 35 24 21 21 21 19 18 18 16
74 84 80 67 49 35 15 34 46 56 67 66 78 80 55 28 18 12 15 14 15 17 19 15 34 38 35 41 55 28 40 39 38 30 19 21 23 17 16 15 16 18 18 16 15
86 89 82 64 34 20 32 47 34 47 68 69 65 56 46 33 19 14 18 13 19 20 28 23 22 29 32 36 38 38 43 42 34 27 26 27 26 22 18 17 16 17 18 17 16
83 90 77 51 22 21 44 48 38 42 47 41 45 56 49 45 43 24 16 18 29 34 27 28 34 24 21 31 39 40 43 42 33 27 29 30 30 24 21 18 16 16 16 17 17
98 85 67 36 24 39 46 42 46 45 44 34 35 31 27 26 30 25 17 22 28 32 33 42 33 25 26 29 32 36 40 39 39 28 26 28 30 25 21 19 16 15 17 19 39
95 81 50 28 42 58 50 40 42 50 63 32 35 26 24 22 25 17 11 15 16 19 19 23 20 20 20 20 19 20 19 26 28 38 46 34 49 33 30 25 22 18 63 87 85
90 64 31 40 64 61 47 39 37 57 21 33 30 16 16 21 18 18 14 15 18 19 18 25 20 21 22 18 15 17 20 34 43 48 45 39 51 41 31 30 26 42 83 85 80
74 44 38 58 61 55 47 42 56 69 34 30 22 22 21 21 20 20 22 21 22 23 22 24 19 17 19 24 30 34 41 37 41 50 65 40 51 45 38 32 33 87 87 83 79
54 41 54 63 65 55 45 62 78 90 25 30 28 23 29 28 26 25 30 34 32 44 44 44 40 34 34 46 41 44 55 81 83 71 61 35 44 40 80 80 86 91 92 87 78
48 50 54 58 53 50 59 69 75 39 31 24 24 25 34 28 29 33 42 44 37 53 79 81 55 41 44 41 49 48 58 76 69 73 61 50 64 92 86 80 79 79 81 83 87
50 54 64 58 58 63 74 88 46 30 26 27 26 33 34 30 30 37 43 46 42 46 67 75 69 42 38 38 44 66 68 47 66 59 80 60 44 74 92 95 87 93 89 89 89
58 71 70 60 60 69 85 71 32 25 25 26 31 32 39 35 38 45 46 36 42 38 58 61 74 45 37 41 40 58 47 88 90 95 91 56 70 97 98 97 98 98 100 95 86
73 84 61 52 67 80 87 73 29 24 25 27 32 36 34 52 44 49 49 40 46 49 56 63 76 56 54 58 55 77 88 82 78 76 86 78 98 100 99 100 99 95 87 98 88
80 93 61 63 87 85 84 49 24 27 26 34 35 46 52 53 60 60 61 46 38 54 68 65 98 92 60 42 39 44 62 100 94 87 74 81 99 100 100 98 96 79 73 75 91
82 78 59 66 94 94 58 34 40 42 46 49 52 50 50 57 75 73 69 56 60 64 66 75 84 92 62 77 70 90 98 97 100 97 84 92 98 97 98 83 83 85 79 73 79
88 88 72 77 76 62 60 51 56 43 54 50 52 55 65 74 67 78 74 58 65 66 58 70 89 84 74 56 54 90 87 89 98 98 95 97 95 90 88 84 82 84 83 78 72
92 84 68 93 73 67 64 56 57 55 54 49 58 68 72 82 74 77 71 81 72 67 74 94 97 93 83 69 76 96 98 95 97 95 90 97 92 92 86 88 90 84 74 74 75
92 67 80 82 66 73 65 66 58 54 60 65 69 68 75 89 71 79 72 79 87 79 93 100 93 97 94 79 96 95 92 75 95 96 95 89 89 81 72 71 74 80 80 83 84
72 59 71 64 62 79 80 68 66 71 62 57 64 74 91 81 72 69 65 72 74 86 97 98 98 97 97 91 78 83 97 94 90 86 74 84 90 76 80 78 88 84 85 88 89

GFSSW_925_rhum_108.txt.gz
RH
57 64 64 64 75 77 71 75 68 53 31 24 27 16 19 12 8 28 51 8 11 14 22 28 20 17 24 29 35 41 52 65 38 35 31 27 33 27 21 21 21 19 18 18 31
56 62 69 68 70 58 67 52 53 37 29 15 14 21 21 21 44 65 21 18 26 29 28 20 20 15 20 31 35 44 75 55 40 32 35 35 36 32 27 28 26 28 24 17 23
61 67 72 64 66 58 68 65 45 48 17 12 16 27 19 31 44 9 24 28 25 28 24 26 26 26 16 33 37 40 51 44 39 35 35 34 33 28 30 31 30 29 26 23 16
61 74 74 63 66 60 67 62 63 65 25 16 24 31 21 44 3 24 24 24 29 25 25 30 30 32 32 21 20 39 36 34 34 28 30 29 26 27 27 26 23 22 23 23 22
66 80 75 65 60 57 54 49 46 60 29 27 34 42 33 40 27 10 25 28 22 22 23 28 32 35 39 37 32 31 28 24 22 23 22 21 24 24 22 20 20 23 24 26 26
74 83 74 69 58 57 48 40 34 24 15 26 47 66 72 27 8 13 28 26 17 25 31 35 40 35 21 20 21 24 22 24 23 23 25 25 24 23 22 20 19 19 22 23 26
74 83 75 71 61 58 55 39 21 14 15 28 46 92 94 31 15 33 26 24 18 19 20 19 17 14 16 23 18 18 22 20 20 24 27 26 28 28 22 22 21 20 20 20 20
80 87 76 69 59 62 54 32 12 12 26 36 59 96 80 18 17 22 22 23 22 24 17 15 15 18 19 20 28 25 22 25 24 20 18 23 25 21 22 17 17 20 22 20 20
88 89 78 71 63 59 44 14 21 46 43 58 91 90 62 30 44 27 37 27 20 18 17 17 19 25 22 36 45 35 31 31 26 28 23 25 30 25 19 18 19 18 17 20 18
95 92 77 71 70 58 29 25 56 66 71 83 86 77 41 30 25 15 30 17 16 18 20 18 36 40 39 44 48 30 32 37 43 32 28 32 31 23 21 22 21 20 19 17 17
99 90 87 82 69 48 22 51 34 43 77 51 51 47 45 40 27 16 20 15 19 22 29 25 27 40 38 39 38 32 44 53 41 35 36 37 32 27 24 25 24 22 20 19 18
97 95 92 81 73 37 40 50 36 39 40 42 62 65 55 49 50 35 16 17 27 29 30 32 36 27 21 25 36 38 46 49 38 32 32 34 29 22 22 24 25 21 20 19 20
98 95 97 86 59 32 54 41 47 47 34 25 40 36 26 36 39 27 20 22 31 35 33 40 34 28 27 28 34 39 43 41 37 26 28 30 30 20 20 21 21 22 21 51 86
100 97 94 79 33 56 55 42 42 48 43 29 38 32 28 25 26 19 14 16 16 24 19 22 22 19 19 20 21 24 22 26 24 28 28 36 42 26 25 27 24 20 22 94 91
98 98 95 58 67 66 46 40 41 52 22 33 30 15 17 23 19 20 17 15 20 21 19 25 22 26 25 24 17 22 19 23 26 50 56 34 43 25 23 26 41 80 89 87 80
99 94 80 53 65 57 48 40 52 52 29 32 23 22 24 25 22 22 24 22 22 25 23 24 24 22 25 22 26 28 42 44 44 54 61 33 34 34 42 99 94 88 81 83 78
97 90 68 51 65 56 48 61 60 65 25 32 28 27 30 30 29 27 31 33 28 34 47 50 43 34 37 44 41 44 52 79 79 93 58 31 43 48 98 98 98 97 90 85 82
88 78 54 69 68 58 61 83 87 40 35 24 25 32 35 29 32 35 37 38 49 53 68 77 60 45 42 43 50 50 53 66 71 71 62 40 59 97 88 78 89 94 96 89 81
88 69 63 62 61 65 77 92 33 34 28 29 27 36 37 31 31 36 41 43 41 43 56 63 72 43 34 33 42 60 67 44 55 49 66 66 58 77 69 74 83 95 94 96 93
60 71 71 61 65 67 85 62 34 26 26 27 34 34 42 35 38 44 44 40 40 38 51 65 81 43 39 40 45 55 53 79 84 98 96 72 80 96 92 88 86 94 95 94 93
67 83 73 61 69 80 90 76 30 26 26 29 34 39 37 50 46 51 50 40 44 47 59 64 76 54 54 58 53 71 81 72 72 86 93 92 94 99 97 95 94 95 93 97 95
80 95 71 67 91 89 89 56 26 30 33 40 44 44 51 56 58 60 60 46 50 52 64 60 93 86 64 46 50 48 60 75 95 94 79 86 98 96 94 96 89 80 77 77 95
90 86 71 70 96 97 65 42 43 44 49 48 56 49 50 58 67 65 67 55 61 61 67 75 84 94 61 84 77 78 92 99 97 96 96 92 98 91 93 74 72 83 84 80 79
91 96 81 82 81 71 58 57 54 48 54 48 53 56 67 74 67 74 76 58 64 68 58 68 84 83 72 45 50 81 80 95 96 96 94 98 96 93 92 77 76 80 82 87 81
91 87 73 96 66 70 62 57 59 60 55 50 58 67 70 81 77 80 70 81 67 63 70 87 95 90 84 69 73 97 96 92 98 93 95 97 93 94 92 84 89 90 80 82 86
92 79 79 83 73 72 63 63 59 58 62 63 63 69 75 85 71 78 75 79 85 74 97 100 93 97 91 74 96 95 95 90 88 95 95 92 91 86 88 87 86 83 82 85 87
72 62 68 58 68 69 74 68 61 70 60 56 64 73 87 81 71 66 61 76 81 88 97 98 98 97 96 88 87 87 97 95 88 85 84 83 89 87 86 85 89 88 88 89 90

GFSSW_925_rhum_111.txt.gz
RH
58 60 68 80 82 80 72 77 71 59 45 16 14 11 16 10 7 21 36 10 14 13 24 28 19 22 24 26 35 35 32 35 25 26 21 25 31 26 24 24 22 19 21 19 19
52 52 68 84 82 75 68 70 62 47 56 17 13 19 25 12 25 53 24 22 24 26 25 23 18 16 19 27 31 38 47 35 29 24 26 31 32 28 28 26 25 23 21 20 17
62 58 81 79 74 71 65 62 53 37 13 12 12 23 28 18 23 8 24 33 29 28 25 24 23 15 16 33 32 37 24 37 36 31 32 30 27 23 24 24 22 23 20 19 18
72 62 70 73 73 65 60 53 50 43 16 12 14 24 26 30 5 20 20 18 27 28 25 29 28 32 27 20 25 34 33 32 29 26 25 25 22 21 21 20 17 16 18 20 20
86 75 66 73 72 63 55 48 44 42 17 14 24 34 30 22 13 12 26 31 28 25 23 26 29 32 32 32 30 30 26 22 19 18 20 19 20 20 20 16 16 18 19 20 21
92 85 72 74 74 68 52 45 39 26 13 13 34 43 58 18 8 11 25 34 22 25 29 33 34 32 23 22 22 25 19 17 17 16 17 20 20 23 21 18 16 16 15 16 17
93 90 79 83 76 67 53 46 38 14 12 17 38 73 80 18 15 26 31 27 18 23 22 24 21 15 17 22 19 17 20 19 15 20 22 25 19 26 20 16 15 15 15 15 15
97 95 85 83 81 66 55 48 28 14 25 38 54 86 44 17 20 17 24 26 25 27 20 16 15 20 22 22 27 27 24 22 21 23 19 20 14 23 19 17 16 17 16 16 15
100 99 95 89 85 67 52 48 21 45 49 70 90 82 34 26 35 30 30 26 22 21 21 19 19 25 22 31 34 32 21 25 21 23 25 23 22 19 17 18 20 18 17 17 16
100 99 99 95 84 69 58 27 59 74 82 90 90 65 30 25 30 19 40 26 18 20 20 20 29 31 33 32 20 21 24 29 29 27 24 27 27 21 20 19 18 18 19 19 18
100 100 100 96 83 72 56 44 40 46 84 43 36 31 34 41 32 18 20 17 20 23 27 24 25 30 26 34 33 34 34 35 34 27 34 32 23 17 16 16 18 18 16 16 17
100 100 100 94 86 78 40 57 35 44 43 43 59 61 57 49 40 33 21 18 25 23 29 28 31 25 22 25 28 30 32 32 30 28 24 17 16 13 14 18 14 14 17 17 20
100 100 100 95 85 66 36 47 46 47 34 23 37 37 28 40 40 32 19 20 26 28 32 29 26 27 27 26 29 30 32 29 23 20 16 17 17 14 12 13 17 32 63 72 75
100 100 100 90 80 47 60 45 45 48 33 20 29 32 29 27 25 21 16 22 20 32 34 29 21 21 20 20 19 23 20 20 21 22 21 21 26 17 15 22 64 75 74 74 74
100 99 95 84 62 73 60 54 45 50 43 32 35 19 24 25 22 19 19 17 20 20 21 25 23 27 28 24 19 24 21 26 28 30 37 28 36 18 15 44 77 74 71 73 72
100 99 94 73 75 61 51 43 50 52 35 33 22 23 24 24 22 20 22 20 23 25 24 25 29 26 26 23 24 32 37 37 40 42 40 25 27 23 70 95 90 77 73 75 72
100 99 92 61 65 60 48 63 59 48 25 30 26 27 27 30 28 26 27 27 23 26 34 39 31 35 36 38 39 35 38 49 53 60 40 35 36 35 91 87 82 85 78 74 68
100 97 85 58 56 57 69 80 41 34 33 33 30 30 30 27 31 34 30 33 45 40 50 43 35 44 38 39 39 39 39 44 54 47 41 28 32 58 70 64 67 67 68 68 73
99 89 83 81 68 57 76 58 37 35 28 28 29 34 35 31 32 34 37 36 42 38 40 45 53 42 38 32 32 49 55 36 46 40 50 35 52 71 62 67 67 78 69 75 80
84 83 74 67 77 62 83 40 40 27 25 26 31 32 40 32 36 40 37 37 39 40 38 53 64 42 34 40 40 38 39 69 59 86 76 49 47 72 89 86 77 82 84 81 82
84 97 80 78 74 74 83 56 31 26 26 30 33 35 35 40 40 44 36 36 43 56 53 54 52 42 47 47 44 59 59 53 53 54 76 72 82 94 94 90 89 83 80 88 91
88 98 85 82 88 85 76 60 28 30 35 38 39 36 43 50 50 49 48 44 46 51 53 58 78 77 58 43 53 48 50 77 87 72 83 86 83 86 91 89 90 72 79 74 92
99 100 87 82 98 86 68 45 39 41 45 47 52 50 48 52 53 55 57 59 56 59 60 73 76 71 60 86 68 62 64 79 97 84 81 88 92 83 91 83 71 80 73 71 75
94 97 90 85 85 59 62 54 54 51 51 47 52 55 62 61 61 65 66 60 63 65 58 69 78 74 43 31 39 67 72 77 94 90 64 92 91 86 89 76 73 79 72 79 82
91 90 70 91 86 74 62 57 56 61 52 49 59 60 60 69 71 70 66 72 65 62 62 83 85 83 79 63 66 91 88 89 92 80 83 93 90 91 90 87 85 78 76 76 81
94 82 75 69 74 82 65 63 57 61 61 58 58 66 64 68 58 74 70 74 77 70 90 92 87 97 94 63 81 89 91 93 93 94 91 92 89 76 76 73 79 82 84 81 83
78 66 71 70 66 62 69 64 63 71 60 56 65 69 74 68 62 56 55 64 67 76 95 96 93 91 87 86 84 92 94 93 93 89 91 86 80 75 78 78 87 85 85 87 86

GFSSW_925_rhum_114.txt.gz
RH
59 58 61 66 74 70 58 56 43 26 10 10 8 8 15 14 9 35 20 14 20 14 22 24 18 19 17 14 20 16 16 16 16 16 14 12 17 13 17 17 15 17 17 17 17
67 67 64 72 74 73 64 54 51 34 13 9 10 9 12 12 44 19 23 28 16 16 22 15 12 13 10 12 15 16 14 14 13 13 13 12 15 14 18 16 16 15 14 14 12
82 76 74 74 77 69 61 57 50 41 19 11 11 11 11 11 22 14 20 27 30 32 21 17 13 10 11 14 15 14 17 11 17 15 15 16 16 13 14 15 13 15 13 12 14
82 86 78 79 78 73 59 55 49 43 15 11 13 16 12 43 11 19 19 26 28 41 21 15 13 12 9 11 14 20 15 14 14 16 17 16 12 13 12 13 12 12 13 15 15
84 88 88 77 71 76 63 54 46 45 15 12 14 22 37 12 7 19 22 33 43 28 14 12 12 11 11 11 14 20 13 14 16 16 14 13 14 14 14 11 11 13 13 14 13
88 88 92 87 75 76 68 54 44 45 16 12 17 37 37 16 12 16 28 43 28 21 15 14 12 12 14 15 17 16 19 17 14 13 11 13 12 12 13 14 13 12 11 11 11
93 92 94 93 82 78 69 54 45 37 14 14 23 72 38 17 19 26 25 25 22 20 17 18 17 16 13 14 14 15 17 12 11 10 12 15 15 16 11 14 12 11 10 9 9
99 98 98 98 90 82 71 57 46 21 18 34 45 67 24 20 26 26 18 24 26 21 19 16 16 16 17 17 19 19 17 14 13 16 13 14 11 8 14 13 12 10 10 9 9
100 100 100 100 94 89 73 53 34 36 46 49 78 62 20 23 26 27 22 16 20 20 21 17 16 19 20 21 17 18 10 10 11 13 14 14 12 10 10 11 13 12 10 9 9
100 100 100 100 99 91 72 47 43 71 76 75 68 49 22 11 27 22 38 24 16 17 18 18 18 20 20 19 14 11 14 12 14 11 15 15 14 11 12 12 13 12 10 10 9
100 100 100 100 99 90 70 46 39 44 57 28 22 20 18 30 31 16 19 17 16 18 21 20 21 21 16 16 18 18 19 17 13 14 18 18 14 10 8 7 8 8 10 10 19
100 100 100 100 98 87 55 45 32 41 39 26 26 25 25 37 25 16 18 16 18 19 17 24 23 16 18 18 20 20 19 18 15 18 17 12 10 8 7 9 11 10 22 41 44
99 100 100 100 96 78 41 45 48 43 32 24 16 20 22 31 16 14 16 14 18 16 18 19 13 19 19 19 22 20 22 20 18 13 11 11 11 7 10 10 21 41 43 44 48
100 100 100 100 89 53 39 45 49 31 57 40 17 17 22 19 19 15 14 13 15 16 15 19 14 20 21 21 19 21 14 16 16 17 15 11 18 13 9 16 37 42 45 47 47
100 100 97 98 66 61 48 49 42 50 89 26 24 21 19 16 16 16 15 15 18 20 22 20 20 22 23 20 17 18 18 20 21 22 22 18 20 15 9 15 45 55 56 50 48
100 99 99 87 59 58 54 55 58 64 70 30 21 24 22 18 18 15 15 15 17 19 19 18 19 18 18 18 19 18 23 20 22 25 30 18 15 15 23 69 72 66 63 54 49
100 100 98 77 79 62 58 64 62 58 20 27 25 22 24 22 21 19 19 20 21 26 27 22 22 20 24 23 23 25 27 29 30 41 31 20 26 16 62 63 64 66 61 54 53
100 100 96 75 62 60 65 77 88 43 26 23 22 23 29 24 24 24 23 24 26 23 26 26 26 25 28 25 24 30 29 28 24 20 18 24 29 26 54 49 49 52 54 56 58
99 97 78 82 70 68 73 92 51 39 21 22 24 28 28 24 24 25 26 23 22 25 28 29 26 27 32 29 27 28 38 23 34 30 39 26 18 46 52 56 54 58 60 66 65
95 92 97 84 77 66 84 72 41 21 20 18 22 23 28 27 28 27 25 22 30 26 23 30 37 25 27 29 26 28 27 53 42 64 53 29 29 59 89 79 72 76 74 73 73
84 93 93 89 76 92 88 64 32 19 19 22 22 28 24 28 26 27 22 27 29 32 29 34 39 30 34 33 29 39 43 41 42 46 58 57 76 92 93 91 85 70 65 80 78
92 97 90 91 97 94 72 43 28 22 22 25 23 25 26 27 31 30 32 28 28 36 38 36 52 49 38 31 35 30 35 40 60 62 50 63 69 76 85 80 75 62 59 60 71
100 100 99 98 94 83 48 40 27 24 25 28 31 28 35 34 41 36 40 42 43 39 39 50 51 55 52 79 56 75 50 40 58 77 69 78 79 76 85 70 71 73 62 61 67
97 98 100 99 80 59 53 42 36 30 30 33 41 38 41 41 36 43 44 51 51 48 52 54 57 64 43 32 32 51 65 67 77 86 60 75 93 85 85 83 76 70 67 72 79
88 83 65 95 86 56 44 38 35 41 36 36 47 38 36 43 44 47 43 57 54 56 49 61 66 66 66 51 47 64 71 67 88 73 90 90 88 90 89 88 80 84 74 78 82
97 61 51 61 57 61 49 40 36 47 46 40 38 38 38 40 38 50 52 55 68 49 52 54 70 79 81 60 63 93 83 79 91 81 93 91 86 86 66 72 74 80 82 81 83
68 42 47 57 58 60 55 42 45 63 46 34 36 46 49 40 39 37 38 48 52 63 76 96 85 89 82 65 80 91 91 93 91 84 88 86 84 79 71 73 84 81 83 86 84

GFSSW_925_rhum_117.txt.gz
RH
72 69 66 64 63 62 60 49 37 25 13 9 8 7 6 13 9 22 16 14 16 15 20 16 14 13 11 11 13 12 14 15 13 12 12 9 11 11 10 15 12 12 14 13 14
77 75 72 70 67 66 65 54 43 26 12 9 8 6 7 10 48 18 24 19 17 9 18 12 9 10 10 10 11 14 14 13 10 10 12 10 10 10 11 12 13 12 11 12 12
80 83 78 74 73 70 69 59 46 31 16 11 8 6 7 12 26 16 15 21 20 18 19 12 10 9 10 9 10 12 15 11 10 9 12 12 12 10 13 13 11 12 11 10 11
84 82 89 81 75 72 70 65 49 36 25 13 10 6 8 47 22 21 19 21 23 38 17 12 10 10 9 8 8 11 10 10 10 9 12 13 11 11 10 11 9 9 9 11 12
87 86 89 91 84 74 71 69 53 39 29 14 10 10 36 22 16 22 12 22 32 23 12 9 10 10 11 8 8 8 9 7 7 9 11 10 10 10 9 7 7 7 11 11 11
91 89 89 91 92 82 74 72 55 43 35 15 11 13 33 32 12 11 18 24 20 15 10 8 7 7 9 9 10 9 9 10 8 9 8 10 9 8 7 7 10 9 9 9 8
99 96 95 93 96 89 80 75 58 46 35 15 19 46 32 29 16 15 18 12 14 12 10 12 12 14 9 10 8 10 11 8 7 7 8 9 12 10 8 8 11 9 8 8 7
100 100 100 100 100 96 85 80 61 47 22 23 34 45 38 19 16 15 12 14 14 12 13 13 13 12 11 10 12 12 12 13 8 9 8 11 12 6 8 9 10 8 8 7 7
100 100 100 100 100 100 91 81 56 31 37 37 64 46 33 18 16 16 14 10 12 15 15 15 13 13 12 18 15 11 15 14 10 9 9 10 10 7 7 9 9 9 9 8 7
99 98 100 100 100 99 94 75 49 45 69 59 48 46 26 13 18 15 20 13 11 14 15 16 13 15 15 15 18 15 12 10 11 8 8 10 11 9 7 7 9 9 8 8 8
93 100 100 100 100 99 93 58 52 53 48 38 29 27 16 18 21 14 22 20 12 12 18 13 16 18 14 13 12 14 16 14 10 8 9 11 12 9 7 6 6 6 6 6 13
100 100 100 99 100 99 90 53 34 39 48 31 28 24 22 18 21 15 14 15 17 18 15 16 22 16 12 12 16 17 16 14 10 9 11 14 12 8 7 6 6 7 8 23 29
98 100 100 99 100 98 65 39 40 32 44 36 28 26 22 19 22 14 14 14 14 18 16 16 16 12 14 15 17 15 15 15 14 12 10 10 11 9 7 7 8 22 27 27 32
92 100 100 100 97 77 49 43 41 44 68 36 26 18 17 18 21 14 10 16 14 16 14 14 11 13 14 17 15 17 11 13 15 16 18 13 20 14 11 10 15 26 34 38 38
98 100 97 97 80 58 51 46 46 48 74 22 18 13 15 16 14 14 10 10 14 14 15 17 13 18 17 14 14 18 14 17 17 18 20 17 18 15 11 11 23 38 41 41 38
100 98 100 98 68 59 51 47 46 71 72 28 20 23 21 15 15 13 14 12 12 14 14 17 13 15 14 13 14 14 17 19 19 21 30 21 19 16 26 48 43 43 43 42 41
100 99 100 90 78 56 53 50 91 74 23 26 24 21 20 20 18 16 18 20 20 26 25 18 17 15 17 20 16 20 26 35 35 31 31 18 18 16 39 43 48 48 46 45 45
100 100 100 89 72 68 53 81 96 33 31 18 19 20 24 20 20 20 19 20 17 19 22 30 36 18 16 23 18 17 23 33 39 32 24 12 21 28 38 37 40 44 47 50 52
100 100 99 83 69 63 82 99 56 40 26 23 20 25 25 22 23 23 24 21 18 20 29 24 21 17 22 18 20 19 24 20 31 28 35 23 15 31 42 48 50 54 53 59 59
97 98 100 89 79 80 97 89 51 32 22 19 28 24 28 25 27 26 24 19 20 21 20 24 32 16 16 21 22 25 18 35 34 54 45 24 20 66 90 75 66 67 60 62 64
90 97 99 99 82 97 97 58 41 23 19 23 25 24 24 24 24 25 21 20 22 24 20 18 32 25 21 25 26 22 33 29 29 44 55 55 81 88 88 86 82 64 56 68 70
94 98 100 92 98 99 79 52 41 26 18 20 22 21 24 22 24 22 24 19 22 21 33 24 38 42 25 17 20 22 26 30 53 45 52 43 56 69 78 72 66 68 66 54 64
97 100 100 96 96 80 52 48 35 28 22 23 25 22 20 23 29 23 29 28 28 29 29 31 38 48 36 35 40 52 38 27 39 57 65 82 72 69 73 65 66 74 66 64 64
98 97 100 100 96 65 59 51 41 25 24 23 23 22 27 26 26 34 32 38 35 30 45 41 52 58 50 62 42 53 44 44 44 62 50 56 95 87 86 79 72 81 82 80 73
98 86 63 94 96 72 57 46 42 35 23 23 29 29 27 33 31 38 31 38 47 46 44 42 59 61 50 41 37 42 49 51 73 62 86 78 83 87 90 82 86 86 84 81 82
98 73 54 52 64 75 68 52 45 35 33 33 31 27 28 35 32 33 33 44 58 37 44 41 64 73 75 50 51 69 64 60 79 82 83 87 88 86 77 77 83 86 87 85 84
82 50 48 58 66 72 65 49 42 36 32 26 29 32 35 32 24 24 26 33 38 50 48 58 82 82 76 49 60 85 88 78 90 75 86 85 82 81 83 78 87 85 86 87 85